Location: Saratoga Springs
(43.0831°N, 73.7850°W)
Time: 05:55:59
(UTC-04:00)

Vanguard 1 Rocket - Pass Details

Date: 14 April 2024
Orbit: 651 x 4220 km, 34.3° (Epoch: 20 May)

Event Time Altitude Azimuth Distance (km) Brightness Sun altitude
Rises 01:19:45 0° 272° (W) 4,866 11.1 -37.0°
Reaches altitude 10° 01:22:30 10° 266° (W) 4,233 10.7 -37.0°
Enters shadow 01:24:18 17° 261° (W) 3,888 10.4 -36.9°
Maximum altitude 01:34:07 47° 198° (SSW) 3,439 - -36.6°
Exits shadow 01:45:23 27° 146° (SE) 5,272 10.9 -36.1°
Drops below altitude 10° 01:54:33 10° 134° (SE) 7,125 11.7 -35.6°
Sets 02:01:05 0° 129° (SE) 8,379 12.1 -35.2°
